Simultaneous Nadir Overpasses (SNOs) Predictions

Prediction of SNOs near equator between AQUA and NPP Satellite Orbit:

Table of predicted SNOs near equator for the next 14.0 days since TLE Epoch: 1/11/2017
Index Date (AQUA) Time (AQUA) AQUA Lat,Lon Date (NPP) Time (NPP) NPP Lat,Lon Distance(km) Time Diff (sec)
1 01/13/2017 15:36:03 5.91, -31.03 01/13/2017 15:26:08 5.86, -31.16 16.14 595
2 01/13/2017 16:24:10 -1.35, 137.60 01/13/2017 16:15:31 -1.28, 137.19 46.30 519
3 01/13/2017 17:12:25 -3.22, -53.80 01/13/2017 17:05:01 -3.36, -54.47 76.21 444
4 01/16/2017 07:52:06 4.42, 85.18 01/16/2017 07:42:36 4.38, 84.94 26.55 570
5 01/16/2017 08:40:14 0.08,-106.21 01/16/2017 08:31:59 0.19,-106.71 56.74 495
6 01/16/2017 09:28:29 -4.65, 62.39 01/16/2017 09:21:29 -4.84, 61.63 86.60 420
7 01/18/2017 23:26:08 -29.97, 27.56 01/18/2017 23:16:08 -30.58, 27.05 82.69 600
8 01/19/2017 00:08:10 2.94,-158.62 01/18/2017 23:59:04 2.85,-158.94 37.11 546
9 01/19/2017 00:56:17 1.62, 10.00 01/19/2017 00:48:27 1.72, 9.41 67.22 470
10 01/19/2017 01:44:32 -6.18, 178.60 01/19/2017 01:37:57 -6.37, 177.75 96.71 395
11 01/21/2017 15:35:58 -5.98, 148.99 01/21/2017 15:26:02 -5.97, 148.83 17.56 596
12 01/21/2017 16:24:13 1.41, -42.41 01/21/2017 16:15:32 1.32, -42.83 47.58 521
13 01/21/2017 17:12:21 3.08, 126.20 01/21/2017 17:04:55 3.25, 125.52 77.65 446
14 01/24/2017 07:52:02 -4.52, -94.81 01/24/2017 07:42:30 -4.44, -95.05 28.10 572
15 01/24/2017 08:40:17 -0.05, 73.79 01/24/2017 08:32:01 -0.15, 73.27 58.24
